VA3XLC Weather Reports


Display with metric or nautical units.
time (UTC)temp
F
wind
direction
speed
MPH
gust
MPH
rain 1hr
in
rain 24hr
in
rain mn
in
humidity
%
barometer
mb
20260503022946 34 223 1.0 2.0 0.00 0.00 0.00 61 982.8
20260503022446 34 209 2.0 2.0 0.00 0.00 0.00 62 982.8
20260503021946 34 0 0.0 0.0 0.00 0.00 0.00 62 982.8
20260503021446 34 194 2.0 2.0 0.00 0.00 0.00 63 982.8
20260503020946 34 0 0.0 0.0 0.00 0.00 0.00 61 982.8
20260503020445 34 0 0.0 0.0 0.00 0.00 0.00 60 982.7
20260503015945 34 250 1.0 2.0 0.00 0.00 0.00 60 982.7
20260503015445 35 0 0.0 0.0 0.00 0.00 0.00 57 982.7
20260503014944 35 232 2.0 2.0 0.00 0.00 0.00 57 982.7
20260503014444 35 236 2.0 2.0 0.00 0.00 0.00 56 982.7
20260503013944 35 220 0.0 1.0 0.00 0.00 0.00 55 982.6
20260503013443 35 0 0.0 0.0 0.00 0.00 0.00 54 982.6
20260503012942 36 235 1.0 2.0 0.00 0.00 0.00 53 982.7
20260503012442 36 0 0.0 0.0 0.00 0.00 0.00 52 982.6
20260503011942 37 0 0.0 0.0 0.00 0.00 0.00 50 982.6
20260503011442 37 0 0.0 0.0 0.00 0.00 0.00 48 982.6
20260503010942 38 0 0.0 0.0 0.00 0.00 0.00 47 982.6
20260503010441 38 219 2.0 2.0 0.00 0.00 0.00 47 982.6
20260503005940 39 229 1.0 2.0 0.00 0.00 0.00 44 982.5
20260503004918 40 0 0.0 0.0 0.00 0.00 0.00 42 982.4
20260503002814 42 341 3.0 5.0 0.00 0.00 0.00 36 982.3
20260503002313 42 342 3.0 7.0 0.00 0.00 0.00 35 982.2
20260503001812 43 342 4.0 6.0 0.00 0.00 0.00 34 982.2
20260503001312 43 346 6.0 8.0 0.00 0.00 0.00 33 982.2
20260503000812 43 338 3.0 4.0 0.00 0.00 0.00 32 982.2
20260503000311 44 333 4.0 6.0 0.00 0.00 0.00 32 982.2
20260502235811 44 345 4.0 6.0 0.00 0.00 0.00 31 982.2
20260502234749 44 336 2.0 3.0 0.00 0.00 0.00 30 982.2
20260502234248 44 338 4.0 5.0 0.00 0.00 0.00 30 982.2
20260502233748 44 322 4.0 8.0 0.00 0.00 0.00 28 982.1
20260502233248 44 350 5.0 7.0 0.00 0.00 0.00 27 982.1
20260502232748 45 339 5.0 9.0 0.00 0.00 0.00 27 982.1
20260502232248 45 349 7.0 10.0 0.00 0.00 0.00 25 982.1
20260502231748 45 5 4.0 7.0 0.00 0.00 0.00 27 982.1
20260502231247 45 345 6.0 9.0 0.00 0.00 0.00 25 982.1
20260502230746 45 326 7.0 10.0 0.00 0.00 0.00 26 982.1
20260502230246 45 346 5.0 8.0 0.00 0.00 0.00 26 982.1
20260502225746 45 10 5.0 9.0 0.00 0.00 0.00 26 982.2
20260502225245 45 341 4.0 8.0 0.00 0.00 0.00 26 982.2
20260502224745 45 342 9.0 12.0 0.00 0.00 0.00 25 982.2
20260502223724 45 343 5.0 7.0 0.00 0.00 0.00 26 982.2
20260502222702 45 345 5.0 8.0 0.00 0.00 0.00 27 982.2
20260502222202 45 2 5.0 8.0 0.00 0.00 0.00 27 982.2
20260502221140 45 357 5.0 8.0 0.00 0.00 0.00 28 982.3
20260502220640 45 357 4.0 5.0 0.00 0.00 0.00 28 982.2
20260502220140 45 3 4.0 9.0 0.00 0.00 0.00 29 982.2
20260502215640 45 342 4.0 10.0 0.00 0.00 0.00 29 982.2
20260502215140 45 351 8.0 10.0 0.00 0.00 0.00 28 982.2
20260502214639 45 7 5.0 8.0 0.00 0.00 0.00 30 982.2
20260502214139 45 342 9.0 12.0 0.00 0.00 0.00 30 982.2
20260502213639 45 8 4.0 7.0 0.00 0.00 0.00 30 982.2
20260502213139 45 8 7.0 9.0 0.00 0.00 0.00 32 982.2
20260502212638 45 19 4.0 7.0 0.00 0.00 0.00 31 982.2
20260502212138 44 310 4.0 6.0 0.00 0.00 0.00 32 982.2
20260502211638 44 344 6.0 8.0 0.00 0.00 0.00 35 982.2
20260502211138 44 0 6.0 9.0 0.00 0.00 0.00 34 982.2
20260502210637 44 351 6.0 11.0 0.00 0.00 0.00 35 982.2
20260502210137 44 0 6.0 9.0 0.00 0.00 0.00 36 982.1
20260502204555 44 331 8.0 10.0 0.00 0.00 0.00 34 982.2
20260502204054 44 345 6.0 10.0 0.00 0.00 0.00 34 982.3
20260502203554 44 19 5.0 9.0 0.00 0.00 0.00 35 982.3
20260502203054 44 354 6.0 11.0 0.00 0.00 0.00 35 982.3
20260502202554 44 9 5.0 9.0 0.00 0.00 0.00 35 982.4
20260502202054 43 329 4.0 6.0 0.00 0.00 0.00 37 982.4
20260502201553 44 343 6.0 10.0 0.00 0.00 0.00 36 982.5
20260502201052 43 346 8.0 10.0 0.00 0.00 0.00 38 982.5
20260502200552 43 355 5.0 8.0 0.00 0.00 0.00 38 982.6
20260502200052 43 326 6.0 9.0 0.00 0.00 0.00 40 982.6
20260502195552 43 336 7.0 10.0 0.00 0.00 0.00 40 982.7
20260502195051 43 343 7.0 10.0 0.00 0.00 0.00 40 982.7
20260502194550 43 352 4.0 6.0 0.00 0.00 0.00 43 982.7
20260502194050 43 332 4.0 6.0 0.00 0.00 0.00 43 982.9
20260502193550 43 17 4.0 6.0 0.00 0.00 0.00 43 982.9
20260502193049 42 315 5.0 7.0 0.00 0.00 0.00 43 983.0
20260502192027 43 10 5.0 8.0 0.00 0.00 0.00 43 983.0
20260502191526 42 320 5.0 8.0 0.00 0.00 0.00 45 983.0
20260502191025 42 321 5.0 7.0 0.00 0.00 0.00 44 983.1
20260502190525 43 328 7.0 9.0 0.00 0.00 0.00 45 983.1
20260502190025 43 344 5.0 7.0 0.00 0.00 0.00 45 983.1
20260502185525 43 350 6.0 10.0 0.00 0.00 0.00 46 983.1
20260502185025 42 348 3.0 5.0 0.00 0.00 0.00 45 983.1
20260502184524 42 300 5.0 11.0 0.00 0.00 0.00 47 983.1
20260502184023 42 337 6.0 7.0 0.00 0.00 0.00 46 983.1
20260502183523 43 347 8.0 11.0 0.00 0.00 0.00 46 983.1
20260502182502 42 11 5.0 8.0 0.00 0.00 0.00 46 983.1
20260502182001 42 314 3.0 7.0 0.00 0.00 0.00 47 983.1
20260502181501 42 341 6.0 8.0 0.00 0.00 0.00 47 983.2
20260502181001 42 309 4.0 6.0 0.00 0.00 0.00 47 983.2
20260502170414 41 339 6.0 9.0 0.00 0.00 0.00 50 983.2
20260502163912 41 339 6.0 9.0 0.00 0.00 0.00 48 983.1
20260502163411 42 327 7.0 9.0 0.00 0.00 0.00 48 983.1
20260502162911 42 303 7.0 9.0 0.00 0.00 0.00 46 983.1
20260502162411 42 349 4.0 6.0 0.00 0.00 0.00 48 983.1
20260502160828 41 23 6.0 9.0 0.00 0.00 0.00 52 983.3
20260502160327 41 331 7.0 10.0 0.00 0.00 0.00 52 983.3
20260502151722 40 348 5.0 9.0 0.00 0.00 0.00 51 983.3
20260502151221 40 3 5.0 8.0 0.00 0.00 0.00 52 983.2
20260502150721 40 352 5.0 6.0 0.00 0.00 0.00 51 983.2
20260502150221 40 4 7.0 9.0 0.00 0.00 0.00 51 983.2
20260502130549 38 20 5.0 11.0 0.00 0.00 0.00 63 983.6
20260502123548 37 335 4.0 7.0 0.00 0.00 0.00 67 983.7
20260502123048 37 338 7.0 11.0 0.00 0.00 0.00 67 983.7
20260502122547 37 358 4.0 6.0 0.00 0.00 0.00 68 983.7
20260502122046 37 341 4.0 6.0 0.00 0.00 0.00 68 983.6
20260502121546 37 313 5.0 7.0 0.00 0.00 0.00 69 983.6
20260502114940 36 319 5.0 7.0 0.00 0.00 0.00 71 983.7
20260502114440 36 351 3.0 4.0 0.00 0.00 0.00 72 983.7
20260502113940 35 316 2.0 4.0 0.00 0.00 0.00 73 983.7
20260502112919 35 331 4.0 5.0 0.00 0.00 0.00 74 983.7
20260502112418 35 333 3.0 4.0 0.00 0.00 0.00 74 983.6
20260502111918 35 301 2.0 3.0 0.00 0.00 0.00 74 983.6
20260502110856 35 337 4.0 6.0 0.00 0.00 0.00 74 983.5
20260502110355 35 300 3.0 3.0 0.00 0.00 0.00 74 983.5
20260502105855 35 289 3.0 4.0 0.00 0.00 0.00 75 983.5
20260502105354 35 317 1.0 2.0 0.00 0.00 0.00 74 983.4
20260502104854 35 293 2.0 3.0 0.00 0.00 0.00 75 983.4
20260502104354 35 312 2.0 4.0 0.00 0.00 0.00 74 983.3
20260502103854 35 299 2.0 3.0 0.00 0.00 0.00 74 983.3
20260502103353 35 313 2.0 4.0 0.00 0.00 0.00 74 983.3
20260502102852 35 323 3.0 4.0 0.00 0.00 0.00 74 983.3
20260502102352 35 289 1.0 2.0 0.00 0.00 0.00 74 983.3
20260502101851 35 313 2.0 4.0 0.00 0.00 0.00 74 983.4
20260502101351 35 289 2.0 3.0 0.00 0.00 0.00 74 983.4
20260502100330 35 270 4.0 5.0 0.00 0.00 0.00 74 983.3
20260502091244 35 285 2.0 3.0 0.00 0.00 0.00 74 982.9
20260502090744 35 311 3.0 4.0 0.00 0.00 0.00 74 982.9
20260502090244 35 268 3.0 5.0 0.00 0.00 0.00 74 982.9
20260502071120 35 330 3.0 4.0 0.00 0.00 0.00 77 982.6
20260502070059 36 292 2.0 3.0 0.00 0.00 0.00 76 982.8
20260502065558 36 303 2.0 3.0 0.00 0.00 0.00 76 982.9
20260502064537 36 275 2.0 3.0 0.00 0.00 0.00 75 982.9
20260502064037 35 274 4.0 6.0 0.00 0.00 0.00 74 982.9
20260502063536 35 262 3.0 4.0 0.00 0.00 0.00 74 982.9
20260502063036 35 278 2.0 5.0 0.00 0.00 0.00 74 982.9
20260502062536 35 277 3.0 3.0 0.00 0.00 0.00 74 982.9
20260502062036 35 289 3.0 4.0 0.00 0.00 0.00 74 983.0
20260502061536 35 266 3.0 4.0 0.00 0.00 0.00 73 983.0
20260502061035 35 246 3.0 4.0 0.00 0.00 0.00 73 982.8
20260502060535 35 281 3.0 3.0 0.00 0.00 0.00 73 982.8
20260502060035 35 316 2.0 3.0 0.00 0.00 0.00 72 982.8
20260502055534 35 342 3.0 5.0 0.00 0.00 0.00 72 983.0
20260502054513 35 283 4.0 6.0 0.00 0.00 0.00 72 983.1
20260502053451 35 328 1.0 2.0 0.00 0.00 0.00 71 983.1
20260502052429 35 301 3.0 3.0 0.00 0.00 0.00 70 983.2
20260502051929 35 263 2.0 3.0 0.00 0.00 0.00 70 983.2
20260502051429 35 263 3.0 5.0 0.00 0.00 0.00 70 983.2
20260502050929 35 272 4.0 6.0 0.00 0.00 0.00 70 983.1
20260502050428 35 290 1.0 2.0 0.00 0.00 0.00 70 982.8
20260502045406 34 275 2.0 3.0 0.00 0.00 0.00 70 983.1
20260502044906 34 280 3.0 5.0 0.00 0.00 0.00 69 983.0
20260502044406 34 261 3.0 3.0 0.00 0.00 0.00 69 983.0
20260502043905 34 294 3.0 5.0 0.00 0.00 0.00 69 983.0
20260502042322 34 315 2.0 3.0 0.00 0.00 0.00 69 983.0
20260502040739 35 319 3.0 4.0 0.00 0.00 0.00 66 982.8
20260502040239 35 317 4.0 5.0 0.00 0.00 0.00 66 982.8
20260502035739 35 298 3.0 3.0 0.00 0.00 0.00 65 982.7
20260502035239 35 328 1.0 3.0 0.00 0.00 0.00 64 982.6
20260502034217 35 330 2.0 3.0 0.00 0.00 0.00 63 982.8
20260502033716 35 339 3.0 5.0 0.00 0.00 0.00 63 982.9
20260502033216 35 330 3.0 3.0 0.00 0.00 0.00 63 982.8
20260502032716 35 321 3.0 5.0 0.00 0.00 0.00 62 982.8
20260502032215 35 317 3.0 3.0 0.00 0.00 0.00 63 982.8
20260502031714 35 289 1.0 2.0 0.00 0.00 0.00 63 982.9
20260502031214 35 305 3.0 4.0 0.00 0.00 0.00 64 982.8
20260502030152 35 287 2.0 3.0 0.00 0.00 0.00 63 982.7
20260502025652 35 276 2.0 3.0 0.00 0.00 0.00 64 982.7
20260502025152 35 287 3.0 4.0 0.00 0.00 0.00 63 982.6
20260502024650 35 287 3.0 3.0 0.00 0.00 0.00 63 982.6
20260502024150 35 291 2.0 2.0 0.00 0.00 0.00 63 982.5
20260502023129 35 303 2.0 4.0 0.00 0.00 0.00 61 982.6